TimeEDT,TemperatureF,Dew PointF,Humidity,Sea Level PressureIn,VisibilityMPH,Wind Direction,Wind SpeedMPH,Gust SpeedMPH,PrecipitationIn,Events,Conditions,WindDirDegrees,DateUTC
12:15 AM,78.8,69.8,74,29.74,10.0,South,12.7,-,N/A,,Scattered Clouds,190,2013-09-22 04:15:00
12:35 AM,78.8,69.8,74,29.73,10.0,South,17.3,25.3,N/A,,Mostly Cloudy,190,2013-09-22 04:35:00
12:55 AM,78.8,69.8,74,29.73,10.0,South,16.1,23.0,N/A,,Overcast,190,2013-09-22 04:55:00
1:15 AM,78.8,69.8,74,29.72,10.0,South,12.7,-,N/A,,Overcast,190,2013-09-22 05:15:00
1:35 AM,78.8,69.8,74,29.73,10.0,South,19.6,25.3,N/A,,Overcast,190,2013-09-22 05:35:00
1:55 AM,78.8,69.8,74,29.72,10.0,South,12.7,21.9,N/A,,Mostly Cloudy,190,2013-09-22 05:55:00
2:15 AM,78.8,69.8,74,29.71,10.0,South,19.6,23.0,N/A,,Overcast,180,2013-09-22 06:15:00
2:35 AM,78.8,69.8,74,29.71,9.0,South,17.3,26.5,N/A,,Overcast,190,2013-09-22 06:35:00
2:55 AM,75.2,69.8,83,29.71,9.0,SSW,13.8,17.3,0.09,,Mostly Cloudy,210,2013-09-22 06:55:00
3:15 AM,73.4,69.8,88,29.70,6.0,SSW,12.7,17.3,0.18,,Mostly Cloudy,200,2013-09-22 07:15:00
3:35 AM,73.4,69.8,88,29.69,7.0,SSW,9.2,-,0.22,,Overcast,200,2013-09-22 07:35:00
3:55 AM,73.4,69.8,88,29.69,10.0,SSW,11.5,21.9,0.23,,Mostly Cloudy,200,2013-09-22 07:55:00
4:15 AM,73.4,69.8,88,29.69,10.0,SW,10.4,-,N/A,,Mostly Cloudy,230,2013-09-22 08:15:00
4:35 AM,73.4,69.8,88,29.68,10.0,SW,9.2,-,N/A,,Scattered Clouds,220,2013-09-22 08:35:00
4:55 AM,73.4,69.8,88,29.68,10.0,SW,9.2,-,N/A,,Scattered Clouds,220,2013-09-22 08:55:00
5:15 AM,73.4,69.8,88,29.69,10.0,SW,10.4,-,N/A,,Scattered Clouds,230,2013-09-22 09:15:00
5:35 AM,73.4,69.8,88,29.69,10.0,WSW,6.9,-,N/A,,Mostly Cloudy,240,2013-09-22 09:35:00
5:50 AM,73.4,69.8,88,29.68,10.0,WSW,13.8,-,N/A,,Mostly Cloudy,240,2013-09-22 09:50:00
6:45 AM,71.6,68.0,88,29.69,10.0,WSW,11.5,-,N/A,,Mostly Cloudy,240,2013-09-22 10:45:00
7:36 AM,71.6,66.2,83,29.71,10.0,WNW,16.1,-,N/A,,Mostly Cloudy,300,2013-09-22 11:36:00
7:50 AM,69.8,64.4,83,29.71,10.0,WNW,13.8,-,N/A,,Mostly Cloudy,290,2013-09-22 11:50:00
8:45 AM,68.0,62.6,83,29.72,10.0,WNW,11.5,-,N/A,,Mostly Cloudy,290,2013-09-22 12:45:00
9:45 AM,68.0,62.6,83,29.74,10.0,NW,11.5,-,N/A,,Mostly Cloudy,310,2013-09-22 13:45:00
10:50 AM,69.8,62.6,78,29.75,10.0,NW,13.8,-,N/A,,Overcast,320,2013-09-22 14:50:00
11:50 AM,71.6,62.6,73,29.75,10.0,NNW,17.3,-,N/A,,Overcast,340,2013-09-22 15:50:00
12:50 PM,71.6,62.6,73,29.76,10.0,NNW,16.1,-,N/A,,Overcast,330,2013-09-22 16:50:00
1:55 PM,71.6,64.4,78,29.76,10.0,North,11.5,-,N/A,,Overcast,350,2013-09-22 17:55:00
2:45 PM,71.6,62.6,73,29.74,10.0,North,11.5,17.3,N/A,,Overcast,350,2013-09-22 18:45:00
3:45 PM,73.4,64.4,73,29.75,10.0,North,16.1,-,N/A,,Overcast,350,2013-09-22 19:45:00
4:50 PM,75.2,62.6,65,29.76,10.0,North,10.4,-,N/A,,Overcast,350,2013-09-22 20:50:00
5:50 PM,75.2,62.6,65,29.77,10.0,North,11.5,-,N/A,,Mostly Cloudy,10,2013-09-22 21:50:00
6:50 PM,73.4,62.6,69,29.78,10.0,North,11.5,-,N/A,,Mostly Cloudy,10,2013-09-22 22:50:00
7:45 PM,73.4,62.6,69,29.81,10.0,North,6.9,-,N/A,,Overcast,350,2013-09-22 23:45:00
8:45 PM,71.6,64.4,78,29.83,10.0,NNE,8.1,-,N/A,,Overcast,20,2013-09-23 00:45:00
9:50 PM,71.6,62.6,73,29.85,10.0,North,8.1,-,N/A,,Overcast,10,2013-09-23 01:50:00
11:15 PM,66.2,60.8,83,29.87,10.0,Calm,Calm,-,N/A,,Scattered Clouds,0,2013-09-23 03:15:00
11:35 PM,66.2,60.8,83,29.88,10.0,Calm,Calm,-,N/A,,Mostly Cloudy,0,2013-09-23 03:35:00
11:55 PM,66.2,60.8,83,29.88,10.0,NNW,3.5,-,N/A,,Mostly Cloudy,340,2013-09-23 03:55:00